This is the latest recevied weather packets stored in our database for station/object N1OF. If no packets are shown the sender has not sent any weather packets the latest 10 day(s).
| Time | Temp. | Humidity | Pressure | Rain* | Wind** | Luminosity | Snow |
|---|---|---|---|---|---|---|---|
| 1777915747 | 22.22° C | 47% | 1005.9 hPa | 0 mm | - | - | - |
| 1777915443 | 22.22° C | 48% | 1006 hPa | 0 mm | - | - | - |
| 1777915139 | 21.67° C | 49% | 1005.8 hPa | 0 mm | - | - | - |
| 1777914836 | 22.22° C | 49% | 1006.3 hPa | 0 mm | - | - | - |
| 1777914533 | 21.67° C | 51% | 1006.1 hPa | 0 mm | - | - | - |
| 1777914230 | 21.67° C | 49% | 1006.1 hPa | 0 mm | - | - | - |
| 1777913926 | 21.67° C | 52% | 1006.3 hPa | 0 mm | - | - | - |
| 1777913623 | 22.78° C | 50% | 1006.4 hPa | 0 mm | - | - | - |
| 1777913319 | 22.22° C | 49% | 1006.5 hPa | 0 mm | - | - | - |
| 1777913016 | 22.22° C | 51% | 1006.6 hPa | 0 mm | - | - | - |
| 1777912712 | 21.67° C | 51% | 1006.5 hPa | 0 mm | - | - | - |
| 1777912408 | 21.11° C | 52% | 1006.8 hPa | 0 mm | - | - | - |
| 1777912105 | 20.56° C | 52% | 1006.9 hPa | 0 mm | - | - | - |
| 1777911800 | 21.11° C | 51% | 1006.6 hPa | 0 mm | - | - | - |
| 1777911498 | 20.56° C | 52% | 1006.8 hPa | 0 mm | - | - | - |
| 1777911194 | 20.56° C | 52% | 1006.8 hPa | 0 mm | - | - | - |
| 1777910892 | 20.56° C | 51% | 1007 hPa | 0 mm | - | - | - |
| 1777910588 | 20.56° C | 52% | 1007.1 hPa | 0 mm | - | - | - |
| 1777910286 | 20° C | 53% | 1007.2 hPa | 0 mm | - | - | - |
| 1777909982 | 20° C | 52% | 1007.1 hPa | 0 mm | - | - | - |
| 1777909679 | 20° C | 52% | 1007.2 hPa | 0 mm | - | - | - |
| 1777909376 | 20° C | 54% | 1007.3 hPa | 0 mm | - | - | - |
| 1777909074 | 19.44° C | 53% | 1007.6 hPa | 0 mm | - | - | - |
| 1777908772 | 20° C | 53% | 1007.3 hPa | 0 mm | - | - | - |
| 1777908469 | 19.44° C | 54% | 1007.4 hPa | 0 mm | - | - | - |
* Rain latest hour (hover to see other rain measurements)
** Current wind speed in m/s (hover to see current wind gust speed)